Meteo pe oră la Bolshoe Agishevo

Astăzi, 6 Mai, Joi

Timp Temperatura Precipitaţii Vânt Presiune Umiditate
00:00 +7°C° 0 mm 4 m/s 746 mmHg 81%
01:00 +6°C° 0 mm 4 m/s 746 mmHg 82%
02:00 +6°C° 0 mm 4 m/s 746 mmHg 83%
03:00 +7°C° 0 mm 3 m/s 746 mmHg 84%
04:00 +6°C° 0 mm 4 m/s 746 mmHg 83%
05:00 +6°C° 0 mm 4 m/s 746 mmHg 82%
06:00 +7°C° 0 mm 4 m/s 746 mmHg 81%
07:00 +9°C° 0 mm 5 m/s 746 mmHg 75%
08:00 +12°C° 0 mm 5 m/s 746 mmHg 69%
09:00 +13°C° 0 mm 6 m/s 746 mmHg 63%
10:00 +14°C° 0 mm 6 m/s 746 mmHg 60%
11:00 +15°C° 0 mm 6 m/s 746 mmHg 56%
12:00 +16°C° 0 mm 6 m/s 746 mmHg 53%
13:00 +16°C° 0 mm 6 m/s 746 mmHg 53%
14:00 +17°C° 0 mm 6 m/s 746 mmHg 52%
15:00 +17°C° 0 mm 6 m/s 745 mmHg 52%
16:00 +16°C° 0 mm 6 m/s 745 mmHg 55%
17:00 +15°C° 0 mm 6 m/s 745 mmHg 57%
18:00 +15°C° 0 mm 6 m/s 744 mmHg 60%
19:00 +14°C° 0 mm 6 m/s 744 mmHg 62%
20:00 +13°C° 0 mm 6 m/s 744 mmHg 64%
21:00 +13°C° 0 mm 6 m/s 744 mmHg 66%
22:00 +11°C° 0 mm 6 m/s 745 mmHg 69%
23:00 +11°C° 0 mm 6 m/s 745 mmHg 72%

Mâine, 7 Mai, Vineri

Timp Temperatura Precipitaţii Vânt Presiune Umiditate
00:00 +10°C° 0 mm 5 m/s 745 mmHg 76%
01:00 +9°C° 0.3 mm 5 m/s 745 mmHg 80%
02:00 +8°C° 0.3 mm 4 m/s 746 mmHg 85%
03:00 +9°C° 0.3 mm 3 m/s 746 mmHg 89%
04:00 +8°C° 0.1 mm 3 m/s 747 mmHg 89%
05:00 +8°C° 0.1 mm 2 m/s 747 mmHg 89%
06:00 +7°C° 0.1 mm 2 m/s 748 mmHg 89%
07:00 +9°C° 0 mm 2 m/s 748 mmHg 79%
08:00 +10°C° 0 mm 2 m/s 748 mmHg 69%
09:00 +12°C° 0 mm 2 m/s 749 mmHg 60%
10:00 +12°C° 0 mm 3 m/s 749 mmHg 54%
11:00 +13°C° 0 mm 3 m/s 749 mmHg 49%
12:00 +13°C° 0 mm 3 m/s 749 mmHg 44%
13:00 +14°C° 0 mm 3 m/s 748 mmHg 43%
14:00 +14°C° 0 mm 4 m/s 748 mmHg 42%
15:00 +14°C° 0 mm 4 m/s 748 mmHg 41%
16:00 +14°C° 0 mm 3 m/s 748 mmHg 47%
17:00 +13°C° 0 mm 3 m/s 748 mmHg 52%
18:00 +14°C° 0 mm 2 m/s 747 mmHg 58%
19:00 +12°C° 0 mm 3 m/s 747 mmHg 62%
20:00 +10°C° 0 mm 3 m/s 747 mmHg 66%
21:00 +9°C° 0 mm 3 m/s 748 mmHg 71%
22:00 +9°C° 0 mm 3 m/s 747 mmHg 76%
23:00 +9°C° 0 mm 3 m/s 746 mmHg 82%

Poimâine, 8 Mai, Sâmbătă

Timp Temperatura Precipitaţii Vânt Presiune Umiditate
00:00 +8°C° 0 mm 3 m/s 746 mmHg 87%
01:00 +8°C° 0.4 mm 4 m/s 745 mmHg 89%
02:00 +10°C° 0.4 mm 4 m/s 745 mmHg 91%
03:00 +9°C° 0.4 mm 5 m/s 744 mmHg 92%
04:00 +10°C° 2.6 mm 6 m/s 743 mmHg 92%
05:00 +10°C° 2.6 mm 7 m/s 742 mmHg 91%
06:00 +10°C° 2.6 mm 9 m/s 741 mmHg 91%
07:00 +10°C° 1.5 mm 7 m/s 742 mmHg 91%
08:00 +10°C° 1.5 mm 6 m/s 742 mmHg 92%
09:00 +10°C° 1.5 mm 5 m/s 743 mmHg 93%
10:00 +9°C° 0.2 mm 5 m/s 743 mmHg 90%
11:00 +9°C° 0.2 mm 5 m/s 744 mmHg 87%
12:00 +9°C° 0.2 mm 5 m/s 745 mmHg 84%
13:00 +10°C° 0.1 mm 5 m/s 746 mmHg 75%
14:00 +12°C° 0.1 mm 5 m/s 746 mmHg 66%
15:00 +13°C° 0.1 mm 5 m/s 747 mmHg 57%
16:00 +13°C° 0 mm 5 m/s 747 mmHg 58%
17:00 +12°C° 0 mm 5 m/s 747 mmHg 60%
18:00 +12°C° 0 mm 4 m/s 748 mmHg 61%
19:00 +10°C° 0 mm 4 m/s 748 mmHg 67%
20:00 +9°C° 0 mm 3 m/s 749 mmHg 72%
21:00 +7°C° 0 mm 2 m/s 750 mmHg 77%
22:00 +7°C° 0 mm 2 m/s 750 mmHg 78%
23:00 +6°C° 0 mm 2 m/s 750 mmHg 79%

9 Mai, Duminică

Timp Temperatura Precipitaţii Vânt Presiune Umiditate
00:00 +6°C° 0 mm 2 m/s 751 mmHg 80%
01:00 +6°C° 0 mm 2 m/s 751 mmHg 80%
02:00 +6°C° 0 mm 1 m/s 751 mmHg 80%
03:00 +6°C° 0 mm 1 m/s 752 mmHg 80%

10 Mai, Luni

Timp Temperatura Precipitaţii Vânt Presiune Umiditate

11 Mai, Marţi

Timp Temperatura Precipitaţii Vânt Presiune Umiditate
Arată mai mult

Formular de consimțământ

Meteoprog și furnizorii noștri de servicii pot stoca și accesa date personale, precum cookies, identificatori de dispozitiv sau alte tehnologii similare pe dispozitivul dumneavoastră și procesa astfel de date pentru a personaliza conținutul și reclamele, dar și pentru a oferi caracteristici de social media și pentru a analiza traficul.

  • Stocarea și/sau accesarea informațiilor pe dispozitivul dumneavoastră

    Cookies, identificatori de dispozitiv sau alte informații pot fi stocate sau accesate pe dispozitiv în scopurile indicate mai sus.

  • Reclame și conținut personalizat, evaluarea reclamelor și a conținutului, informații despre audiențe și dezvoltarea produselor

    Reclamele și conținutul pot fi personalizate pe baza unui profil. Pot fi adăugate date suplimentare pentru a personaliza mai bine reclamele și conținutul. Performanța reclamelor și conținutului poate fi măsurată. Pot fi obținute informații despre utilizatorii care au văzut reclamele și conținutul. Aceste date pot fi utilizate pentru a dezvolta sau îmbunătăți experiența utilizatorilor, sistemele și software-ul.

Dând clic pe ‘Sunt de acord’, permiteți utilizarea cookie-urilor menționate, a identificatorilor de dispozitiv, balizelor web sau altor tehnologii similare. Setările pot fi modificate din browser-ul dispozitivului dumneavoastră.

În anumite scopuri, interesele legitime pot prima asupra consimțământului. Puteți citi mai multe informații în acest sens în Politica privind Confidențialitatea Datelor și Cookie.